Location: Amarillo Post Office Jordan Station
(35.1907°N, 101.9342°W)
Time: 17:53:13
(UTC+00:00)

COSMO-SKYMED 1 - Pass Details

Date: 24 January 2021
Orbit: 621 x 623 km, 97.9° (Epoch: 01 March)

Event Time Altitude Azimuth Distance (km) Brightness Sun altitude
Rises 12:13:04 0° 171° (S) 2,888 6.2 -20.2°
Reaches altitude 10° 12:15:15 10° 174° (S) 1,986 5.3 -19.7°
Maximum altitude 12:19:34 72° 259° (WSW) 659 2.4 -18.9°
Enters shadow 12:23:13 15° 342° (NNW) 1,718 4.5 -18.1°
